Regional Weather Roundup
Issued by NWS

Home | Current Version | Previous Version | Graphics & Text | Print | Product List | Glossary On
Versions: 1 2 3 4 5 6 7 8 9 10 11 12 13 14 15 16 17 18 19 20 21 22 23 24 25 26 27 28 29 30 31 32 33 34 35 36 37 38 39 40 41 42 43 44 45 46 47 48 49 50
000
ASUS43 KDMX 311303
RWRIA

WEATHER ROUNDUP FOR IOWA
NATIONAL WEATHER SERVICE DES MOINES IA
800 AM CDT TUE MAY 31 2016

NOTE: "FAIR" INDICATES FEW OR NO CLOUDS BELOW 12,000 FEET WITH NO
SIGNIFICANT WEATHER AND/OR OBSTRUCTIONS TO VISIBILITY.

* - THESE STATIONS ARE NOT NWS STATIONS...THUS NOT UNDER NWS
QUALITY CONTROL.  THEY ALSO DO NOT REPORT WEATHER SUCH
AS PRECIPITATION OR FOG.

IAZ001>003-012>014-020>022-031>034-043>046-311400-
   NORTHWEST IOWA

CITY           SKY/WX    TMP DP  RH WIND       PRES   REMARKS
CARROLL *      CLOUDY    68  63  83 SW10      29.91S
CHEROKEE *     RAIN      62  62  99 N5        29.89F
DENISON *      CLOUDY    64  63  94 CALM      29.89F
LE MARS *      DRIZZLE   61  59  94 N8        29.91S
ORANGE CITY *  LGT RAIN  61  59  94 NW10      29.92S
SHELDON *      CLOUDY    63  61  94 W10       29.90S
SIOUX CITY     CLOUDY    63  59  87 NW10      29.91R
SPENCER        PTSUNNY   63  59  87 W10       29.91R
STORM LAKE *   SUNNY     63  61  94 W12       29.91F
$$

IAZ055>058-069>071-079>083-090>094-311400-
   SOUTHWEST IOWA

CITY           SKY/WX    TMP DP  RH WIND       PRES   REMARKS
ATLANTIC *     MOSUNNY   66  63  88 S9        29.91F
AUDUBON *        N/A     66  63  88 S6        29.92F
CLARINDA *       N/A     66  63  88 MISG      29.93R
COUNCIL BLFS * MOSUNNY   66  63  88 SW6       29.91S
CRESTON *      CLOUDY    66  61  82 S6        29.93F
HARLAN  *      CLOUDY    66  63  88 S8        29.95R
LAMONI         MOSUNNY   64  60  87 SE12      29.95F
RED OAK *      CLOUDY    66  63  88 S6        29.91F
SHENANDOAH *   CLOUDY    66  64  94 S5        29.91S
$$

IAZ047>049-059>061-072>074-084-311400-
   CENTRAL IOWA

CITY           SKY/WX    TMP DP  RH WIND       PRES   REMARKS
AMES           MOSUNNY   65  61  87 S7        29.92F
ANKENY *       MOSUNNY   68  61  77 MISG      29.93F
BOONE *        SUNNY     66  63  88 S9        29.92S
CHARITON *     MOSUNNY   66  63  88 S10       29.96S
DES MOINES     CLOUDY    67  59  75 S10       29.93F
GRINNELL*      CLOUDY    66  59  77 S8        29.97F
KNOXVILLE *    CLOUDY    66  59  77 S8        29.94F
MARSHALLTOWN   MOSUNNY   68  61  78 S14       29.94F
NEWTON *       CLOUDY    66  63  88 S8G14     29.95F
PERRY *        PTSUNNY   68  64  88 S7        29.92S
$$

IAZ004>006-015-016-023>025-035-036-311400-
   NORTH CENTRAL IOWA

CITY           SKY/WX    TMP DP  RH WIND       PRES   REMARKS
ALGONA *       PTSUNNY   64  63  94 S9        29.90S
CLARION *      SUNNY     66  63  88 S14G20    29.92R
ESTHERVILLE    LGT RAIN  62  62 100 S7        29.89R
FORT DODGE *   MOSUNNY   66  61  82 S9G16     29.92S
MASON CITY     CLOUDY    63  60  90 S12       29.94R
FOREST CITY *  CLOUDY    63  61  94 S10       29.92R
WEBSTER CITY * CLOUDY    64  63  94 S9        29.90S
IOWA FALLS *     N/A     64  61  88 SE9       29.94S
$$

IAZ007>011-017>019-026>030-037>042-050>054-066-311400-
   NORTHEAST IOWA

CITY           SKY/WX    TMP DP  RH WIND       PRES   REMARKS
CEDAR RAPIDS   MOSUNNY   68  64  87 S8        29.97R
CHARLES CITY * SUNNY     63  61  94 S9G16     29.95F
CLINTON *      CLOUDY    71  62  73 SE7       29.97S
DECORAH *      PTSUNNY   64  59  82 S8        29.95R
DUBUQUE        CLOUDY    68  59  73 SE12      29.96S
MONTICELLO *   MOSUNNY   68  61  77 SE9G16    29.95S
OELWEIN *      PTSUNNY   66  63  88 S13       29.97R
WATERLOO       CLOUDY    67  60  78 S9        29.94S
$$

IAZ064-065-067-068-078-311400-
   EAST CENTRAL IOWA

CITY           SKY/WX    TMP DP  RH WIND       PRES   REMARKS
DAVENPORT      PTSUNNY   71  64  78 SE8       29.97S
IOWA CITY      CLOUDY    69  63  81 SW5       29.98S
MT. PLEASANT * CLOUDY    66  64  94 CALM      29.99S
MUSCATINE *    PTSUNNY   68  63  83 SW5       29.98S
QUAD CITIES    PTSUNNY   72  64  76 CALM      29.96S
$$

IAZ062-063-075>077-085>089-095>099-311400-
   SOUTHEAST IOWA

CITY           SKY/WX    TMP DP  RH WIND       PRES   REMARKS
BURLINGTON     CLOUDY    68  63  84 W6        29.99R
FAIRFIELD *      N/A    N/A N/A N/A MISG        N/A
FORT MADISON * CLOUDY    64  63  94 CALM      30.00S
KEOKUK *       CLOUDY    68  64  88 CALM      29.98S FOG
OSKALOOSA *      N/A     67  61  82 S6        29.98F
OTTUMWA        CLOUDY    64  61  90 S8        29.97F
WASHINGTON *   MOSUNNY   68 -40   1 SW7       29.99F
$$

ABBREVIATIONS USED IN REMARKS
   TC - TEMPERATURES IN CELSIUS
  WCI - WIND CHILL INDEX
   HX - HEAT INDEX
  VSB - VISIBILITY
$$





USA.gov is the U.S. government's official web portal to all federal, state and local government web resources and services.